Simultaneous Nadir Overpasses (SNOs) Predictions

Prediction of SNOs between AQUA and GOES-15 Satellite Orbit:

Table of predicted SNOs for the next 14.0 days since TLE Epoch: 3/15/2013
Index Date Time (AQUA) AQUA Lat,Lon GOES-15 Lat,Lon Distance(km) Time Diff (sec)
1 03/17/2013 10:26:21 -0.58,-132.71 -0.01,-135.40 305.62 80
2 03/17/2013 22:47:44 -0.57,-137.89 0.00,-135.35 289.96 80
3 03/19/2013 22:35:35 0.10,-134.95 0.00,-135.33 43.84 80
4 03/21/2013 22:23:24 0.68,-131.98 -0.00,-135.30 377.10 80
5 03/22/2013 10:44:40 0.40,-137.14 0.00,-135.34 205.29 80
6 03/24/2013 10:32:30 -0.26,-134.19 0.00,-135.31 127.63 80
7 03/24/2013 22:53:54 -0.87,-139.38 -0.00,-135.26 468.10 80
8 03/26/2013 10:20:19 -0.88,-131.23 0.00,-135.27 460.06 80
9 03/26/2013 22:41:43 -0.24,-136.42 -0.00,-135.22 135.81 80
10 03/28/2013 22:29:31 0.34,-133.45 -0.00,-135.17 195.86 80




NCC Satellite Simultaneous Nadir Overpasses (SNOs) Prediction Service
